TimeCST,TemperatureF,Dew PointF,Humidity,Sea Level PressureIn,VisibilityMPH,Wind Direction,Wind SpeedMPH,Gust SpeedMPH,PrecipitationIn,Events,Conditions,WindDirDegrees,DateUTC
12:53 AM,53.1,34.0,48,30.15,10.0,SE,5.8,-,N/A,,Mostly Cloudy,140,2013-12-20 06:53:00
1:53 AM,54.0,35.1,49,30.15,10.0,SSE,6.9,-,N/A,,Mostly Cloudy,150,2013-12-20 07:53:00
2:53 AM,55.0,37.0,51,30.14,10.0,SE,6.9,-,N/A,,Overcast,140,2013-12-20 08:53:00
3:53 AM,55.0,34.0,45,30.15,10.0,Variable,5.8,-,N/A,,Overcast,0,2013-12-20 09:53:00
4:53 AM,55.9,36.0,47,30.14,10.0,SSE,4.6,-,N/A,,Overcast,150,2013-12-20 10:53:00
5:53 AM,55.9,37.9,51,30.15,10.0,SSE,4.6,-,N/A,,Overcast,150,2013-12-20 11:53:00
6:53 AM,55.9,39.0,53,30.16,10.0,Calm,Calm,-,N/A,,Overcast,0,2013-12-20 12:53:00
7:46 AM,57.2,42.8,59,30.16,10.0,Calm,Calm,-,N/A,,Overcast,0,2013-12-20 13:46:00
7:53 AM,57.0,43.0,59,30.16,10.0,Variable,3.5,-,N/A,,Overcast,0,2013-12-20 13:53:00
8:53 AM,57.9,45.0,62,30.16,10.0,Variable,3.5,-,N/A,,Overcast,0,2013-12-20 14:53:00
9:53 AM,57.9,46.9,67,30.17,10.0,Variable,6.9,-,N/A,,Overcast,0,2013-12-20 15:53:00
10:53 AM,63.0,51.1,65,30.14,10.0,South,8.1,-,N/A,,Mostly Cloudy,180,2013-12-20 16:53:00
11:53 AM,66.0,53.1,63,30.12,10.0,South,10.4,18.4,N/A,,Mostly Cloudy,190,2013-12-20 17:53:00
12:53 PM,66.0,54.0,65,30.09,10.0,South,10.4,-,N/A,,Overcast,170,2013-12-20 18:53:00
1:53 PM,68.0,55.0,63,30.06,10.0,South,10.4,-,N/A,,Overcast,170,2013-12-20 19:53:00
2:53 PM,66.9,55.0,66,30.05,10.0,SE,5.8,-,N/A,,Overcast,140,2013-12-20 20:53:00
3:53 PM,66.0,55.0,68,30.06,10.0,SSE,4.6,-,N/A,,Mostly Cloudy,150,2013-12-20 21:53:00
4:53 PM,64.9,54.0,68,30.07,10.0,SE,6.9,-,N/A,,Overcast,140,2013-12-20 22:53:00
5:53 PM,63.0,54.0,72,30.07,10.0,Variable,3.5,-,N/A,,Overcast,0,2013-12-20 23:53:00
6:53 PM,63.0,55.0,75,30.07,10.0,Variable,6.9,-,N/A,,Mostly Cloudy,0,2013-12-21 00:53:00
7:53 PM,64.0,55.9,75,30.08,10.0,SSE,10.4,-,N/A,,Overcast,150,2013-12-21 01:53:00
8:53 PM,64.0,57.0,78,30.08,10.0,SSE,8.1,16.1,N/A,,Mostly Cloudy,150,2013-12-21 02:53:00
9:53 PM,64.0,57.9,80,30.07,10.0,SSE,8.1,-,N/A,,Overcast,150,2013-12-21 03:53:00
10:53 PM,64.0,57.9,80,30.05,10.0,SSE,8.1,-,N/A,,Mostly Cloudy,160,2013-12-21 04:53:00
11:53 PM,63.0,59.0,87,30.04,10.0,SSE,5.8,-,N/A,,Scattered Clouds,160,2013-12-21 05:53:00